• In Germany
  • List of Countries
  • For 7 days
  • Water Temperature
  • Satellite Maps
  • Weather Map
  • Weather Widgets
  • user-avatar
    Login

    Hourly Weather Jalalabad

    Today, 25 November, Saturday

    Time Temperature Precipitation Wind Pressure Humidity
    00:00 +16°C° 0 mm 2 mps 711 mmHg 43%
    01:00 +16°C° 0 mm 2 mps 711 mmHg 44%
    02:00 +15°C° 0 mm 2 mps 711 mmHg 45%
    03:00 +15°C° 0 mm 2 mps 711 mmHg 46%
    04:00 +15°C° 0 mm 2 mps 711 mmHg 46%
    05:00 +14°C° 0 mm 2 mps 710 mmHg 46%
    06:00 +15°C° 0 mm 2 mps 711 mmHg 45%
    07:00 +15°C° 0 mm 2 mps 711 mmHg 44%
    08:00 +15°C° 0 mm 2 mps 711 mmHg 43%
    09:00 +17°C° 0 mm 2 mps 711 mmHg 39%
    10:00 +18°C° 0 mm 2 mps 711 mmHg 34%
    11:00 +20°C° 0 mm 2 mps 711 mmHg 30%
    12:00 +21°C° 0 mm 2 mps 711 mmHg 29%
    13:00 +21°C° 0 mm 2 mps 710 mmHg 28%
    14:00 +21°C° 0 mm 2 mps 710 mmHg 27%
    15:00 +20°C° 0 mm 2 mps 710 mmHg 30%
    16:00 +21°C° 0 mm 1 mps 710 mmHg 33%
    17:00 +20°C° 0 mm 1 mps 710 mmHg 35%
    18:00 +18°C° 0 mm 2 mps 711 mmHg 36%
    19:00 +18°C° 0 mm 2 mps 711 mmHg 36%
    20:00 +17°C° 0 mm 2 mps 711 mmHg 36%
    21:00 +17°C° 0 mm 2 mps 712 mmHg 37%
    22:00 +16°C° 0 mm 2 mps 712 mmHg 37%
    23:00 +16°C° 0 mm 2 mps 712 mmHg 37%

    Tomorrow, 26 November, Sunday

    Time Temperature Precipitation Wind Pressure Humidity
    00:00 +15°C° 0 mm 2 mps 712 mmHg 37%
    01:00 +15°C° 0 mm 2 mps 712 mmHg 38%
    02:00 +14°C° 0 mm 2 mps 712 mmHg 38%
    03:00 +14°C° 0 mm 2 mps 712 mmHg 39%
    04:00 +14°C° 0 mm 2 mps 712 mmHg 39%
    05:00 +14°C° 0 mm 2 mps 712 mmHg 40%
    06:00 +14°C° 0 mm 2 mps 712 mmHg 39%
    07:00 +14°C° 0 mm 2 mps 713 mmHg 38%
    08:00 +15°C° 0 mm 2 mps 713 mmHg 38%
    09:00 +16°C° 0 mm 2 mps 713 mmHg 34%
    10:00 +18°C° 0 mm 2 mps 713 mmHg 30%
    11:00 +20°C° 0 mm 2 mps 713 mmHg 27%
    12:00 +20°C° 0 mm 2 mps 713 mmHg 26%
    13:00 +20°C° 0 mm 2 mps 712 mmHg 25%
    14:00 +21°C° 0 mm 2 mps 712 mmHg 24%
    15:00 +21°C° 0 mm 1 mps 712 mmHg 26%
    16:00 +20°C° 0 mm 1 mps 711 mmHg 29%
    17:00 +18°C° 0 mm 1 mps 711 mmHg 32%
    18:00 +18°C° 0 mm 1 mps 711 mmHg 32%
    19:00 +16°C° 0 mm 1 mps 712 mmHg 32%
    20:00 +15°C° 0 mm 1 mps 712 mmHg 33%
    21:00 +15°C° 0 mm 1 mps 712 mmHg 33%
    22:00 +15°C° 0 mm 2 mps 712 mmHg 32%
    23:00 +15°C° 0 mm 2 mps 712 mmHg 32%

    Day after tomorrow, 27 November, Monday

    Time Temperature Precipitation Wind Pressure Humidity
    00:00 +14°C° 0 mm 2 mps 712 mmHg 32%
    01:00 +14°C° 0 mm 2 mps 712 mmHg 32%
    02:00 +14°C° 0 mm 2 mps 711 mmHg 31%
    03:00 +13°C° 0 mm 2 mps 711 mmHg 31%
    04:00 +13°C° 0 mm 2 mps 711 mmHg 31%
    05:00 +13°C° 0 mm 2 mps 710 mmHg 31%
    06:00 +13°C° 0 mm 2 mps 711 mmHg 30%
    07:00 +14°C° 0 mm 2 mps 711 mmHg 29%
    08:00 +14°C° 0 mm 2 mps 711 mmHg 28%
    09:00 +16°C° 0 mm 2 mps 711 mmHg 25%
    10:00 +19°C° 0 mm 1 mps 711 mmHg 21%
    11:00 +21°C° 0 mm 1 mps 711 mmHg 17%
    12:00 +21°C° 0 mm 1 mps 711 mmHg 17%
    13:00 +22°C° 0 mm 1 mps 710 mmHg 16%
    14:00 +22°C° 0 mm 1 mps 709 mmHg 15%
    15:00 +21°C° 0 mm 1 mps 709 mmHg 19%
    16:00 +20°C° 0 mm 1 mps 709 mmHg 22%
    17:00 +19°C° 0 mm 1 mps 709 mmHg 25%
    18:00 +18°C° 0 mm 1 mps 709 mmHg 25%
    19:00 +16°C° 0 mm 1 mps 709 mmHg 26%
    20:00 +16°C° 0 mm 1 mps 710 mmHg 26%
    21:00 +15°C° 0 mm 1 mps 710 mmHg 26%
    22:00 +15°C° 0 mm 1 mps 710 mmHg 26%
    23:00 +15°C° 0 mm 2 mps 710 mmHg 26%

    28 November, Tuesday

    Time Temperature Precipitation Wind Pressure Humidity
    00:00 +15°C° 0 mm 1 mps 709 mmHg 26%
    01:00 +14°C° 0 mm 1 mps 709 mmHg 26%
    02:00 +14°C° 0 mm 1 mps 709 mmHg 26%
    03:00 +14°C° 0 mm 1 mps 709 mmHg 26%
    04:00 +14°C° 0 mm 1 mps 708 mmHg 27%
    05:00 +13°C° 0 mm 1 mps 708 mmHg 27%
    06:00 +14°C° 0 mm 1 mps 708 mmHg 27%
    07:00 +14°C° 0 mm 1 mps 709 mmHg 26%
    08:00 +14°C° 0 mm 1 mps 709 mmHg 26%
    09:00 +16°C° 0 mm 1 mps 709 mmHg 23%
    10:00 +19°C° 0 mm 1 mps 709 mmHg 20%
    11:00 +21°C° 0 mm 1 mps 709 mmHg 17%
    12:00 +21°C° 0 mm 1 mps 709 mmHg 16%
    13:00 +22°C° 0 mm 1 mps 709 mmHg 16%
    14:00 +22°C° 0 mm 1 mps 708 mmHg 16%
    15:00 +21°C° 0 mm 1 mps 708 mmHg 19%
    16:00 +20°C° 0 mm 1 mps 708 mmHg 21%
    17:00 +19°C° 0 mm 1 mps 708 mmHg 24%
    18:00 +18°C° 0 mm 1 mps 709 mmHg 24%
    19:00 +18°C° 0 mm 1 mps 709 mmHg 24%
    20:00 +16°C° 0 mm 1 mps 709 mmHg 24%
    21:00 +16°C° 0 mm 1 mps 709 mmHg 25%
    22:00 +16°C° 0 mm 2 mps 710 mmHg 26%
    23:00 +15°C° 0 mm 2 mps 710 mmHg 27%

    29 November, Wednesday

    Time Temperature Precipitation Wind Pressure Humidity
    00:00 +15°C° 0 mm 1 mps 710 mmHg 28%
    01:00 +14°C° 0 mm 1 mps 709 mmHg 29%
    02:00 +14°C° 0 mm 1 mps 709 mmHg 31%
    03:00 +13°C° 0 mm 1 mps 710 mmHg 32%
    04:00 +13°C° 0 mm 1 mps 710 mmHg 33%
    05:00 +13°C° 0 mm 1 mps 710 mmHg 34%
    06:00 +13°C° 0 mm 1 mps 710 mmHg 33%
    07:00 +14°C° 0 mm 1 mps 711 mmHg 33%
    08:00 +14°C° 0 mm 1 mps 711 mmHg 32%
    09:00 +16°C° 0 mm 1 mps 711 mmHg 29%
    10:00 +18°C° 0 mm 1 mps 712 mmHg 26%
    11:00 +20°C° 0 mm 1 mps 712 mmHg 22%
    12:00 +21°C° 0 mm 1 mps 711 mmHg 22%
    13:00 +21°C° 0 mm 1 mps 711 mmHg 22%
    14:00 +20°C° 0 mm 2 mps 710 mmHg 22%
    15:00 +20°C° 0 mm 1 mps 710 mmHg 25%
    16:00 +19°C° 0 mm 1 mps 710 mmHg 28%
    17:00 +18°C° 0 mm 1 mps 710 mmHg 31%
    18:00 +16°C° 0 mm 1 mps 711 mmHg 32%
    19:00 +16°C° 0 mm 1 mps 711 mmHg 33%
    20:00 +15°C° 0 mm 1 mps 711 mmHg 34%
    21:00 +15°C° 0 mm 1 mps 711 mmHg 34%
    22:00 +14°C° 0 mm 1 mps 711 mmHg 34%
    23:00 +14°C° 0 mm 2 mps 711 mmHg 34%

    30 November, Thursday

    Time Temperature Precipitation Wind Pressure Humidity
    00:00 +14°C° 0 mm 2 mps 711 mmHg 34%
    01:00 +14°C° 0 mm 2 mps 710 mmHg 33%
    02:00 +13°C° 0 mm 2 mps 710 mmHg 33%
    03:00 +13°C° 0 mm 2 mps 710 mmHg 33%
    04:00 +13°C° 0 mm 2 mps 710 mmHg 33%
    05:00 +12°C° 0 mm 2 mps 710 mmHg 33%
    06:00 +13°C° 0 mm 2 mps 710 mmHg 32%
    07:00 +13°C° 0 mm 2 mps 711 mmHg 32%
    08:00 +13°C° 0 mm 2 mps 711 mmHg 31%
    09:00 +15°C° 0 mm 1 mps 711 mmHg 28%
    10:00 +18°C° 0 mm 1 mps 711 mmHg 24%
    11:00 +20°C° 0 mm 1 mps 711 mmHg 21%
    12:00 +20°C° 0 mm 1 mps 711 mmHg 21%
    13:00 +21°C° 0 mm 1 mps 710 mmHg 20%
    14:00 +21°C° 0 mm 1 mps 709 mmHg 20%
    15:00 +20°C° 0 mm 1 mps 709 mmHg 23%
    16:00 +19°C° 0 mm 1 mps 709 mmHg 27%
    17:00 +18°C° 0 mm 1 mps 709 mmHg 30%
    18:00 +16°C° 0 mm 1 mps 710 mmHg 30%
    19:00 +15°C° 0 mm 1 mps 710 mmHg 31%
    20:00 +14°C° 0 mm 1 mps 710 mmHg 31%
    21:00 +14°C° 0 mm 1 mps 710 mmHg 31%
    22:00 +14°C° 0 mm 1 mps 710 mmHg 30%
    23:00 +14°C° 0 mm 1 mps 710 mmHg 30%
    Show more